51P/Harrington (2008)

Japanese version
Home page
Total 6,336 html files since Dec. 4, 1995
Updated on September 7, 2008

---------------------------------------------------------------------

* Profile

* Pictures

* Orbital Elements

Epoch 2008 June 23.0 TT = JDT 2454640.5
T 2008 June 18.43364 TT                                 MPC
q   1.6875613            (2000.0)            P               Q
n   0.13829150     Peri.  269.18979     +0.98798583     +0.12263148
a   3.7034435      Node    83.76257     -0.07449272     +0.91108849
e   0.5443264      Incl.    5.42891     -0.13540619     +0.39354706
P   7.13
From 337 observations 1994-2008, mean residual 0".9.  Nongravitational
     parameters A1 = +1.75, A2 = +0.2693.

* Finding Charts

* Magnitudes Graph

        m1 = 7.0 + 5 log d + 30.0 log r

---------------------------------------------------------------------

The orbital elements are published on M.P.E.C. 2008-O44.
The charts are made with StellaNavigator Ver.8 (AstroArts).
The magnitudes graphs are made with Comet for Windows.

---------------------------------------------------------------------

Copyright(C) 1995-2008 Seiichi Yoshida (comet@aerith.net). All rights reserved.